[[{"header":{"parameterUnit":"m.s-1","parameterCategory":1,"la1":30.2991,"la2":30.254,"lo1":-89.0895,"lo2":-89.0444,"dy":0.0017,"dx":0.0017,"nx":28,"ny":28,"refTime":"2023-10-17T21:00:00:Z","depth":0,"parameterNumber":2,"parameterNumberName":"U-component_of_WINDS"},"data":[0,0,0,0,0,0,0,0,0,0,0,0,0,0,0,0,0,0,0,0,0,0,0,0,0,0,0,0,0,0,0,0,0,0,0,0,0,0,0,0,0,0,0,0,0,0,0,0,0,0,0,0,0,0,0,0,0,0,1.0952,1.0953,0,1.102,1.102,1.1021,1.1038,1.1038,1.1038,1.1037,1.111,1.1112,1.1114,0,0,0,0,0,0,0,0,0,0,0,0,0,1.0841,1.0843,1.0952,1.0953,1.0953,1.1019,1.102,1.1021,1.1038,1.1038,1.1037,1.1037,1.1109,1.1112,1.1114,0,0,0,0,0,0,0,0,0,0,0,0,0,1.0897,1.0843,1.0952,1.097,1.0972,1.1019,1.102,1.1022,1.1039,1.1038,1.1037,1.1037,1.1108,1.1111,1.1115,1.1149,0,0,1.1125,1.1127,0,0,0,0,0,0,0,0,1.0893,1.0901,1.0966,1.0969,1.0971,1.102,1.1008,1.1064,1.1039,1.1014,1.1037,1.1036,1.108,1.1086,1.11,1.1153,1.1156,1.1126,1.1128,1.1129,1.113,0,0,0,0,0,0,0,1.089,1.0898,1.0979,1.0967,1.097,1.0976,1.0983,1.1019,1.105,1.1016,1.1017,1.1025,1.1082,1.1097,1.1102,1.1157,1.1126,1.1129,1.1131,1.1132,1.1242,1.1242,0,0,0,0,0,0,1.0882,1.0895,1.0977,1.0981,1.093,1.0978,1.0986,1.1005,1.105,1.1056,1.1025,1.1025,1.1091,1.1098,1.1105,1.1148,1.1129,1.1133,1.1135,1.1241,1.1242,1.1243,0,0,0,0,0,0,1.088,1.0889,1.0974,1.0938,1.0949,1.0981,1.1002,1.1007,1.1022,1.1057,1.1063,1.1035,1.1091,1.11,1.1138,1.1151,1.1134,1.1137,1.124,1.1241,1.1242,1.1236,0,0,0,0,0,0,1.0876,1.0888,1.0901,1.0938,1.0951,1.1005,1.1002,1.1008,1.1027,1.1028,1.1067,1.1073,1.1091,1.1133,1.1141,1.1156,1.114,1.1239,1.124,1.1242,1.1235,1.1236,1.1238,0,0,0,0,0,1.0872,1.0897,1.0901,1.0911,1.0967,1.1005,1.1013,1.1032,1.1028,1.1042,1.1064,1.1072,1.1148,1.1136,1.1146,1.1162,1.1238,1.124,1.1242,1.1234,1.1236,1.1238,0,0,0,0,0,0,1.0861,1.0902,1.0908,1.0945,1.0971,1.1008,1.1026,1.1034,1.1063,1.1063,1.1087,1.1095,1.1132,1.1151,1.1137,1.1198,1.1193,1.1197,1.1184,1.1186,1.1188,1.1183,1.1143,0,0,0,0,0,1.0863,1.089,1.0924,1.0954,1.0967,1.0994,1.1011,1.1024,1.1053,1.1065,1.109,1.1119,1.1149,1.1169,1.1199,1.1238,1.1247,1.1253,1.1255,1.1256,1.1259,1.1282,1.1285,1.1249,1.1249,1.1249,0,0,1.0867,1.0893,1.0908,1.0952,1.0974,1.1002,1.1003,1.1033,1.1054,1.107,1.1107,1.1126,1.116,1.1199,1.1217,1.1216,1.1271,1.1258,1.1259,1.1262,1.1284,1.1287,1.129,1.125,1.125,1.1249,0,0,1.0889,1.0911,1.0938,1.096,1.0993,1.1011,1.1017,1.1053,1.1067,1.1104,1.1116,1.1143,1.1195,1.1218,1.1237,1.1268,1.1276,1.1277,1.1285,1.1307,1.131,1.1312,1.1324,1.1328,1.128,1.128,1.128,0,1.089,1.0932,1.0951,1.098,1.0999,1.1013,1.1041,1.1062,1.1104,1.1118,1.1115,1.1181,1.1205,1.1249,1.1257,1.1271,1.128,1.1273,1.1308,1.131,1.1313,1.1324,1.1329,1.128,1.128,1.128,1.128,0,1.0932,1.0961,1.0979,1.1017,1.1039,1.1067,1.1092,1.1111,1.1122,1.1141,1.1179,1.1208,1.1244,1.1256,1.1267,1.1302,1.1301,1.1303,1.1298,1.1316,1.1327,1.1332,1.128,1.128,1.128,1.128,0,0,1.0948,1.0997,1.1004,1.1022,1.1059,1.1082,1.1112,1.1146,1.1163,1.1191,1.1217,1.1261,1.1263,1.1285,1.1299,1.1318,1.1341,1.1318,1.1319,1.1321,1.1382,1.138,1.1385,1.1346,1.1347,1.1348,1.1379,0,1.0975,1.1027,1.1045,1.1088,1.1115,1.1129,1.1155,1.1182,1.12,1.1227,1.1248,1.1278,1.1278,1.1291,1.1311,1.1334,1.1353,1.1332,1.1372,1.1373,1.1362,1.139,1.1388,1.1416,1.1383,1.1384,1.1385,0,1.1013,1.1041,1.1086,1.1121,1.1133,1.1155,1.1189,1.1214,1.1244,1.1257,1.128,1.1293,1.1326,1.1319,1.1365,1.135,1.1368,1.1381,1.1383,1.1388,1.138,1.1396,1.1425,1.143,1.1392,1.1391,1.1391,0,1.102,1.107,1.1103,1.1118,1.1159,1.1175,1.1193,1.1223,1.1243,1.1272,1.1285,1.1319,1.1337,1.1363,1.1385,1.1378,1.1429,1.1424,1.1441,1.144,1.145,1.1449,1.1483,1.1462,1.1461,1.1461,1.1461,0,1.1048,1.1076,1.1107,1.1128,1.1159,1.118,1.1211,1.1231,1.1257,1.1283,1.1298,1.1321,1.1349,1.1377,1.1394,1.143,1.1438,1.1449,1.1454,1.1448,1.1446,1.146,1.1458,1.1463,1.1462,1.1462,1.1462,0,1.1062,1.1084,1.1122,1.1157,1.1167,1.1189,1.122,1.1241,1.126,1.1292,1.1301,1.1331,1.1364,1.1389,1.1432,1.1444,1.1482,1.1487,1.1471,1.1473,1.1488,1.1487,1.1532,1.1539,1.1512,1.1512,1.1513,0,1.1078,1.1099,1.1137,1.1155,1.1172,1.1201,1.122,1.1243,1.1263,1.13,1.1317,1.1351,1.138,1.1433,1.1459,1.1493,1.1498,1.1512,1.1503,1.1497,1.1499,1.1497,1.15,1.1513,1.1513,1.1513,1.1514,0,1.1105,1.1114,1.1142,1.1173,1.1196,1.1223,1.1249,1.1263,1.129,1.1313,1.1346,1.1368,1.1412,1.1447,1.1483,1.1503,1.1513,1.1516,1.1522,1.1516,1.1506,1.1512,1.1475,1.1515,1.1515,1.1515,1.1515,1.1514,1.112,1.114,1.1169,1.12,1.1222,1.1246,1.1268,1.1289,1.1317,1.1354,1.1366,1.1401,1.1432,1.1482,1.1502,1.1531,1.153,1.1538,1.1541,1.1542,1.1542,1.1501,1.1538,1.1538,1.1538,1.1538,1.1538,0,1.1148,1.1167,1.1195,1.1231,1.1255,1.1261,1.1291,1.1311,1.1342,1.1369,1.1397,1.1436,1.1469,1.1498,1.1533,1.155,1.1556,1.1559,1.1558,1.1562,1.154,1.1532,1.1554,1.1554,1.1554,1.1554,1.1554,1.1554,1.1165,1.1198,1.1211,1.1256,1.1276,1.131,1.1326,1.1349,1.1372,1.1414,1.1441,1.146,1.1488,1.1525,1.1557,1.1564,1.1577,1.1578,1.1587,1.1566,1.1564,1.1562,1.1554,1.1581,1.1581,1.1607,1.1608,1.1608]},{"header":{"parameterUnit":"m.s-1","parameterCategory":1,"la1":30.2991,"la2":30.254,"lo1":-89.0895,"lo2":-89.0444,"dy":0.0017,"dx":0.0017,"nx":28,"ny":28,"refTime":"2023-10-17T21:00:00:Z","depth":0,"parameterNumber":3,"parameterNumberName":"V-component_of_WINDS"},"data":[0,0,0,0,0,0,0,0,0,0,0,0,0,0,0,0,0,0,0,0,0,0,0,0,0,0,0,0,0,0,0,0,0,0,0,0,0,0,0,0,0,0,0,0,0,0,0,0,0,0,0,0,0,0,0,0,0,0,0.9656,0.9656,0,0.9637,0.9636,0.9636,0.9642,0.9643,0.9643,0.9643,0.9619,0.9618,0.9617,0,0,0,0,0,0,0,0,0,0,0,0,0,0.9695,0.9694,0.9656,0.9656,0.9655,0.9637,0.9636,0.9636,0.9642,0.9643,0.9643,0.9644,0.9619,0.9618,0.9617,0,0,0,0,0,0,0,0,0,0,0,0,0,0.9677,0.9694,0.9656,0.9656,0.9656,0.9637,0.9636,0.9636,0.9642,0.9643,0.9643,0.9644,0.962,0.9618,0.9616,0.9594,0,0,0.9612,0.9611,0,0,0,0,0,0,0,0,0.9678,0.9675,0.9656,0.9656,0.9656,0.9643,0.9641,0.9622,0.9642,0.9647,0.9643,0.9644,0.9626,0.9624,0.9619,0.9593,0.9592,0.9611,0.961,0.961,0.9609,0,0,0,0,0,0,0,0.9679,0.9676,0.9648,0.9656,0.9656,0.9656,0.9655,0.9637,0.9633,0.9647,0.9647,0.9645,0.9626,0.962,0.9618,0.9591,0.9611,0.961,0.9609,0.9608,0.9547,0.9546,0,0,0,0,0,0,0.9681,0.9677,0.9649,0.9648,0.9669,0.9655,0.9653,0.9646,0.9633,0.9632,0.9645,0.9645,0.9622,0.962,0.9617,0.9591,0.961,0.9608,0.9607,0.9547,0.9547,0.9546,0,0,0,0,0,0,0.9682,0.9678,0.9649,0.9663,0.9659,0.9654,0.9646,0.9645,0.964,0.9632,0.963,0.964,0.9623,0.9619,0.96,0.959,0.9608,0.9606,0.9548,0.9547,0.9546,0.9537,0,0,0,0,0,0,0.9683,0.9679,0.9671,0.9662,0.9658,0.9634,0.9645,0.9645,0.9638,0.9639,0.9627,0.9625,0.9623,0.9603,0.9599,0.9588,0.9605,0.9549,0.9548,0.9547,0.9538,0.9535,0.9533,0,0,0,0,0,0.9684,0.9667,0.967,0.9667,0.9648,0.9633,0.9631,0.963,0.9637,0.9628,0.9623,0.9626,0.9592,0.9601,0.9596,0.9585,0.955,0.9548,0.9547,0.9539,0.9536,0.9533,0,0,0,0,0,0,0.9673,0.9666,0.9669,0.965,0.9642,0.9634,0.9623,0.9626,0.9615,0.9617,0.9615,0.9612,0.9592,0.9587,0.9596,0.9563,0.9572,0.9569,0.9567,0.9564,0.9562,0.9563,0.9604,0,0,0,0,0,0.9668,0.9658,0.9652,0.9635,0.9631,0.9628,0.9621,0.9622,0.9613,0.961,0.9603,0.9594,0.9581,0.9572,0.956,0.9537,0.9535,0.9527,0.9525,0.9523,0.9521,0.9509,0.9506,0.9541,0.9541,0.9541,0,0,0.9658,0.9653,0.9646,0.9633,0.9627,0.9615,0.9625,0.9612,0.9603,0.9607,0.9589,0.9584,0.9573,0.9553,0.9543,0.9547,0.9511,0.9521,0.952,0.9519,0.9507,0.9504,0.9501,0.954,0.954,0.954,0,0,0.9633,0.9629,0.9615,0.9609,0.9601,0.96,0.9596,0.9589,0.9586,0.9569,0.9572,0.956,0.9538,0.9531,0.9524,0.9499,0.9501,0.9495,0.9483,0.9471,0.9468,0.9466,0.9457,0.9454,0.9493,0.9493,0.9493,0,0.9621,0.9605,0.9606,0.9594,0.9588,0.9593,0.9578,0.9573,0.956,0.9555,0.9561,0.9535,0.9527,0.9506,0.95,0.9494,0.949,0.9496,0.9469,0.9467,0.9464,0.9456,0.9453,0.9492,0.9492,0.9492,0.9492,0,0.959,0.9579,0.9568,0.9559,0.9552,0.9538,0.9537,0.9529,0.953,0.9528,0.951,0.9502,0.9489,0.9484,0.9484,0.9462,0.9465,0.947,0.9479,0.946,0.9452,0.9449,0.9491,0.9491,0.9491,0.9492,0,0,0.9556,0.955,0.9545,0.9542,0.9534,0.9525,0.9511,0.95,0.9494,0.9486,0.9474,0.9456,0.9461,0.9454,0.9453,0.9443,0.9424,0.9449,0.9449,0.9445,0.94,0.9397,0.9393,0.9426,0.9426,0.9425,0.9401,0,0.9531,0.9509,0.9511,0.949,0.9479,0.9485,0.9474,0.9467,0.9465,0.9455,0.9452,0.944,0.9447,0.9443,0.9433,0.9429,0.9415,0.9431,0.9414,0.9414,0.9417,0.9389,0.9384,0.9362,0.9398,0.9398,0.9397,0,0.9498,0.9491,0.947,0.9465,0.9461,0.945,0.9441,0.9432,0.9425,0.9424,0.9417,0.9419,0.9404,0.9415,0.9395,0.9405,0.9399,0.9396,0.9395,0.9393,0.9404,0.9386,0.9355,0.9352,0.9392,0.9393,0.9393,0,0.9476,0.9461,0.9446,0.9443,0.9437,0.9429,0.9426,0.942,0.9414,0.9406,0.9402,0.9391,0.9385,0.9376,0.9375,0.9383,0.9355,0.9365,0.9353,0.9354,0.9347,0.9347,0.9314,0.9343,0.9343,0.9343,0.9343,0,0.9447,0.9434,0.9436,0.9427,0.9412,0.9415,0.9399,0.9397,0.9392,0.9382,0.9386,0.9376,0.9375,0.9365,0.9364,0.9348,0.9345,0.9343,0.9343,0.9343,0.9343,0.9338,0.9339,0.9342,0.9343,0.9343,0.9343,0,0.9419,0.942,0.9405,0.9402,0.94,0.9389,0.9386,0.9377,0.9376,0.9364,0.9361,0.9358,0.9347,0.9345,0.9331,0.933,0.9311,0.9313,0.9314,0.9314,0.9303,0.9304,0.9265,0.926,0.9293,0.9292,0.9292,0,0.9401,0.9391,0.9387,0.9382,0.9379,0.9369,0.9364,0.9366,0.936,0.9352,0.9344,0.9333,0.9325,0.9306,0.9302,0.9292,0.9293,0.928,0.9291,0.9292,0.9293,0.9293,0.9292,0.9278,0.9277,0.9277,0.9277,0,0.9367,0.9369,0.9362,0.9355,0.9348,0.9342,0.9337,0.9332,0.9333,0.9326,0.9315,0.9309,0.9296,0.9285,0.9275,0.9271,0.9274,0.9274,0.9271,0.927,0.9271,0.927,0.9308,0.9274,0.9275,0.9275,0.9275,0.9275,0.9343,0.9335,0.9332,0.9324,0.932,0.9316,0.9307,0.9307,0.9298,0.9289,0.929,0.9279,0.9273,0.926,0.9256,0.9246,0.925,0.9245,0.9244,0.9242,0.9241,0.9274,0.9244,0.9244,0.9244,0.9244,0.9244,0,0.931,0.9309,0.9302,0.9295,0.9289,0.9294,0.9289,0.9283,0.9273,0.9268,0.9261,0.9249,0.9239,0.9236,0.9226,0.9219,0.922,0.9216,0.9216,0.9215,0.9238,0.9242,0.9215,0.9215,0.9215,0.9215,0.9215,0.9215,0.9292,0.9279,0.9281,0.9266,0.9265,0.9254,0.9251,0.9247,0.9243,0.923,0.9223,0.9222,0.9217,0.9208,0.9199,0.9198,0.9194,0.919,0.9189,0.9211,0.9213,0.9216,0.922,0.9189,0.9189,0.9167,0.9167,0.9167]}]]